Home   Weather   Buraidah   Past weeks
Flag for Saudi Arabia

Past Weather in Buraidah, Saudi Arabia — Yesterday and Last 2 Weeks

Now
79 °F

Clear.


Feels Like: 79 °F
Forecast: 108 / 73 °F
Wind: 2 mph from Southeast

Location: Gassim

Current Time: Sep 16, 2019 at 5:23:57 am

Latest Report: Sep 16, 2019 at 4:00 am


Visibility: 10 mi

Pressure: 29.86 "Hg (27.83 "Hg at 615m altitude)

Humidity: 37%

Dew Point: 50 °F

Location of BuraidahLocation

Past Weather in Buraidah — Graph

°F

Buraidah Temperature Yesterday

Maximum temperature yesterday: 108 °F (at 3:00 pm)
Minimum temperature yesterday: 75 °F (at 6:00 am)
Average temperature yesterday: 93 °F

High & Low Weather Summary for the Past Weeks

 TemperatureHumidityPressure
High115 °F (Sep 2, 3:00 pm)47% (Sep 11, 5:00 am)29.95 "Hg (Sep 11, 5:00 am)
Low75 °F (Sep 10, 6:00 am)12% (Sep 1, 3:00 pm)29.62 "Hg (Sep 5, 3:00 pm)
Average96 °F23%29.77 "Hg
* Reported Sep 1 4:00 am — Sep 16 4:00 am, Buraidah. Weather by CustomWeather, © 2019

Note: Actual official high and low records may vary slightly from our data, if they occured in-between our weather recording intervals... More about our weather records

Advertising

Buraidah Weather History for the Previous 24 Hours

Scroll right to see more
 ConditionsComfort  
Time TempWeatherWind HumidityBarometerVisibility
4:00 am
Mon, Sep 16
79 °FClear.2 mph37%29.86 "Hg10 mi
3:00 am79 °FClear.3 mph37%29.86 "Hg10 mi
2:00 am79 °FClear.2 mph37%29.86 "Hg10 mi
1:00 am84 °FClear.3 mph29%29.83 "Hg10 mi
12:00 am88 °FClear.8 mph24%29.86 "Hg10 mi
11:00 pm
Sun, Sep 15
88 °FClear.5 mph25%29.86 "Hg10 mi
10:00 pm91 °FClear.5 mph21%29.86 "Hg10 mi
9:00 pm93 °FClear.3 mph20%29.86 "Hg10 mi
8:00 pm95 °FClear.No wind20%29.86 "Hg10 mi
7:00 pm99 °FClear.2 mph17%29.83 "Hg10 mi
6:00 pm100 °FSunny.2 mph15%29.83 "Hg10 mi
5:00 pm104 °FSunny.3 mph13%29.80 "Hg10 mi
4:00 pm108 °FSunny.6 mph15%29.77 "Hg10 mi
3:00 pm108 °FSunny.6 mph15%29.80 "Hg10 mi
2:00 pm106 °FSunny.6 mph15%29.80 "Hg10 mi
1:00 pm106 °FSunny.6 mph15%29.83 "Hg10 mi
12:00 pm104 °FSunny.9 mph16%29.86 "Hg10 mi
11:00 am100 °FSunny.9 mph18%29.86 "Hg10 mi
10:00 am99 °FSunny.14 mph19%29.89 "Hg10 mi
9:00 am91 °FSunny.9 mph24%29.86 "Hg10 mi
8:00 am84 °FSunny.7 mph29%29.86 "Hg10 mi
7:00 am79 °FSunny.3 mph32%29.86 "Hg10 mi
6:00 am75 °FSunny.6 mph36%29.83 "Hg10 mi
5:00 am77 °FClear.6 mph34%29.83 "Hg10 mi
Weather by CustomWeather, © 2019

See weather overview